User: anonymous   Login
Location: Baller�as
(41.9020°N, 0.1554°W)
Time: 23:47:03
(UTC+00:00)
Language:

Cosmos 1954 Rocket - Orbit

View from above orbital plane
View from above orbital plane
View from above satellite
View from above satellite

Ground track
Ground track

The orbit data is extracted from the following two-line orbital elements,

1 19257U 88053B   20293.51807365  .00000113  00000-0  46219-4 0  9990
2 19257  74.0470 132.8655 0019450  80.8225 299.8644 14.37486137694119
Epoch (UTC): 19 October 2020 12:26:01
Eccentricity: 0.0019450
inclination: 74.0470°
perigee height: 753 km
apogee height: 781 km
right ascension of ascending node: 132.8655°
argument of perigee: 80.8225°
revolutions per day: 14.37486137
mean anomaly at epoch: 299.8644°
orbit number at epoch: 69411

The dashed part of the orbit path shows where the satellite is in the earth's shadow,  

DLR